| time (UTC) | temp F | wind direction | speed MPH | gust MPH | rain 1hr in | rain 24hr in | rain mn in | humidity % | barometer mb |
| 20260510023611 | 79 | 108 | 7.0 | 11.0 | 0.00 | 0.00 | 0.00 | 84 | 1010.3 |
| 20260510023114 | 79 | 117 | 8.0 | 12.0 | 0.00 | 0.00 | 0.00 | 84 | 1010.3 |
| 20260510022556 | 80 | 92 | 9.0 | 12.0 | 0.00 | 0.00 | 0.00 | 84 | 1010.2 |
| 20260510022035 | 80 | 103 | 9.0 | 12.0 | 0.00 | 0.00 | 0.00 | 84 | 1010.1 |
| 20260510021525 | 80 | 96 | 9.0 | 12.0 | 0.00 | 0.00 | 0.00 | 84 | 1010.0 |
| 20260510020417 | 79 | 73 | 5.0 | 9.0 | 0.00 | 0.00 | 0.00 | 84 | 1009.8 |
| 20260510015858 | 79 | 100 | 5.0 | 9.0 | 0.00 | 0.00 | 0.00 | 84 | 1009.8 |
| 20260510015355 | 79 | 89 | 3.0 | 9.0 | 0.00 | 0.00 | 0.00 | 84 | 1009.8 |
| 20260510014851 | 79 | 73 | 3.0 | 8.0 | 0.00 | 0.00 | 0.00 | 84 | 1009.5 |
| 20260510014335 | 79 | 184 | 5.0 | 8.0 | 0.00 | 0.00 | 0.00 | 84 | 1009.3 |
| 20260510013831 | 79 | 183 | 5.0 | 8.0 | 0.00 | 0.00 | 0.00 | 84 | 1009.0 |
| 20260510013328 | 79 | 132 | 5.0 | 8.0 | 0.00 | 0.00 | 0.00 | 84 | 1008.6 |
| 20260510012222 | 80 | 197 | 4.0 | 8.0 | 0.00 | 0.00 | 0.00 | 84 | 1008.3 |
| 20260510011714 | 80 | 164 | 4.0 | 11.0 | 0.00 | 0.00 | 0.00 | 84 | 1008.3 |
| 20260510011159 | 80 | 175 | 4.0 | 11.0 | 0.00 | 0.00 | 0.00 | 84 | 1008.4 |
| 20260510010705 | 80 | 171 | 6.0 | 11.0 | 0.00 | 0.00 | 0.00 | 83 | 1008.4 |
| 20260510010149 | 81 | 157 | 8.0 | 11.0 | 0.00 | 0.00 | 0.00 | 83 | 1008.3 |
| 20260510005633 | 81 | 166 | 7.0 | 10.0 | 0.00 | 0.00 | 0.00 | 83 | 1008.2 |
| 20260510005111 | 81 | 180 | 7.0 | 10.0 | 0.00 | 0.00 | 0.00 | 83 | 1008.2 |
| 20260510004611 | 81 | 160 | 7.0 | 10.0 | 0.00 | 0.00 | 0.00 | 82 | 1008.2 |
| 20260510004057 | 81 | 170 | 6.0 | 11.0 | 0.00 | 0.00 | 0.00 | 82 | 1008.3 |
| 20260510003553 | 81 | 140 | 6.0 | 11.0 | 0.00 | 0.00 | 0.00 | 82 | 1008.3 |
| 20260510003050 | 82 | 153 | 6.0 | 11.0 | 0.00 | 0.00 | 0.00 | 82 | 1008.2 |
| 20260510002544 | 82 | 157 | 6.0 | 11.0 | 0.00 | 0.00 | 0.00 | 82 | 1008.2 |
| 20260510002033 | 82 | 163 | 7.0 | 11.0 | 0.00 | 0.00 | 0.00 | 81 | 1008.2 |
| 20260510000846 | 82 | 171 | 7.0 | 12.0 | 0.00 | 0.00 | 0.00 | 81 | 1007.9 |
| 20260510000349 | 83 | 152 | 8.0 | 12.0 | 0.00 | 0.00 | 0.00 | 81 | 1007.9 |
| 20260509235856 | 83 | 157 | 8.0 | 12.0 | 0.00 | 0.00 | 0.00 | 81 | 1007.9 |
| 20260509235341 | 83 | 161 | 8.0 | 12.0 | 0.00 | 0.00 | 0.00 | 80 | 1008.1 |
| 20260509234838 | 83 | 125 | 7.0 | 12.0 | 0.00 | 0.00 | 0.00 | 80 | 1008.0 |
| 20260509234338 | 83 | 2 | 7.0 | 12.0 | 0.00 | 0.00 | 0.00 | 80 | 1008.0 |
| 20260509233833 | 83 | 2 | 8.0 | 13.0 | 0.00 | 0.00 | 0.00 | 79 | 1007.9 |
| 20260509232723 | 84 | 151 | 8.0 | 13.0 | 0.00 | 0.00 | 0.00 | 78 | 1008.1 |
| 20260509232211 | 85 | 117 | 7.0 | 13.0 | 0.00 | 0.00 | 0.00 | 77 | 1008.0 |
| 20260509231718 | 85 | 172 | 4.0 | 9.0 | 0.00 | 0.00 | 0.00 | 77 | 1008.0 |
| 20260509231208 | 85 | 231 | 3.0 | 8.0 | 0.00 | 0.00 | 0.00 | 77 | 1008.0 |
| 20260509230700 | 85 | 138 | 3.0 | 8.0 | 0.00 | 0.00 | 0.00 | 76 | 1008.0 |
| 20260509230145 | 86 | 101 | 4.0 | 8.0 | 0.00 | 0.00 | 0.00 | 75 | 1008.0 |
| 20260509223657 | 87 | 92 | 1.0 | 5.0 | 0.00 | 0.00 | 0.00 | 75 | 1007.6 |
| 20260509221910 | 87 | 136 | 4.0 | 8.0 | 0.00 | 0.00 | 0.00 | 74 | 1007.6 |
| 20260509220729 | 87 | 155 | 4.0 | 8.0 | 0.00 | 0.01 | 0.00 | 74 | 1007.4 |
| 20260509215540 | 87 | 157 | 2.0 | 5.0 | 0.00 | 0.01 | 0.00 | 75 | 1007.4 |
| 20260509215033 | 87 | 185 | 1.0 | 4.0 | 0.00 | 0.01 | 0.00 | 75 | 1007.4 |
| 20260509214534 | 87 | 193 | 0.0 | 3.0 | 0.00 | 0.01 | 0.00 | 76 | 1007.4 |
| 20260509214025 | 86 | 149 | 1.0 | 8.0 | 0.00 | 0.01 | 0.00 | 76 | 1007.5 |
| 20260509213512 | 86 | 107 | 3.0 | 8.0 | 0.00 | 0.01 | 0.00 | 77 | 1007.4 |
| 20260509212408 | 86 | 108 | 4.0 | 7.0 | 0.00 | 0.02 | 0.00 | 76 | 1007.4 |
| 20260509211904 | 86 | 106 | 3.0 | 5.0 | 0.00 | 0.02 | 0.00 | 77 | 1007.6 |
| 20260509211347 | 86 | 92 | 3.0 | 5.0 | 0.00 | 0.02 | 0.00 | 77 | 1007.7 |
| 20260509210832 | 86 | 96 | 4.0 | 5.0 | 0.00 | 0.02 | 0.00 | 77 | 1007.7 |
| 20260509210330 | 85 | 103 | 3.0 | 6.0 | 0.00 | 0.02 | 0.00 | 77 | 1007.7 |
| 20260509205827 | 85 | 105 | 2.0 | 6.0 | 0.00 | 0.02 | 0.00 | 78 | 1007.6 |
| 20260509205320 | 85 | 97 | 3.0 | 8.0 | 0.00 | 0.02 | 0.00 | 78 | 1007.5 |
| 20260509204814 | 85 | 111 | 5.0 | 8.0 | 0.00 | 0.02 | 0.00 | 77 | 1007.5 |
| 20260509204257 | 85 | 99 | 5.0 | 8.0 | 0.00 | 0.02 | 0.00 | 76 | 1007.6 |
| 20260509203750 | 86 | 125 | 5.0 | 8.0 | 0.00 | 0.02 | 0.00 | 76 | 1007.7 |
| 20260509203243 | 86 | 100 | 5.0 | 6.0 | 0.00 | 0.02 | 0.00 | 75 | 1007.6 |
| 20260509202746 | 86 | 100 | 4.0 | 6.0 | 0.00 | 0.02 | 0.00 | 74 | 1007.7 |
| 20260509202230 | 87 | 82 | 4.0 | 6.0 | 0.00 | 0.02 | 0.00 | 73 | 1007.6 |
| 20260509201729 | 87 | 115 | 2.0 | 6.0 | 0.00 | 0.02 | 0.00 | 73 | 1007.7 |
| 20260509201217 | 87 | 89 | 1.0 | 4.0 | 0.00 | 0.02 | 0.00 | 74 | 1007.7 |
| 20260509200708 | 87 | 200 | 1.0 | 4.0 | 0.00 | 0.02 | 0.00 | 75 | 1007.8 |
| 20260509200156 | 87 | 175 | 2.0 | 4.0 | 0.00 | 0.02 | 0.00 | 74 | 1007.8 |
| 20260509195636 | 87 | 169 | 1.0 | 4.0 | 0.00 | 0.02 | 0.00 | 74 | 1008.0 |
| 20260509195124 | 87 | 183 | 0.0 | 2.0 | 0.00 | 0.02 | 0.00 | 75 | 1008.1 |
| 20260509194624 | 87 | 111 | 0.0 | 1.0 | 0.00 | 0.02 | 0.00 | 76 | 1008.1 |
| 20260509194101 | 86 | 132 | 0.0 | 2.0 | 0.00 | 0.02 | 0.00 | 76 | 1008.3 |
| 20260509193554 | 86 | 188 | 0.0 | 2.0 | 0.00 | 0.02 | 0.00 | 75 | 1008.2 |
| 20260509192421 | 85 | 100 | 0.0 | 5.0 | 0.00 | 0.02 | 0.00 | 74 | 1008.2 |
| 20260509191917 | 84 | 83 | 1.0 | 5.0 | 0.00 | 0.02 | 0.00 | 74 | 1008.5 |
| 20260509191419 | 84 | 353 | 2.0 | 5.0 | 0.00 | 0.02 | 0.00 | 73 | 1008.5 |
| 20260509190246 | 85 | 18 | 2.0 | 9.0 | 0.00 | 0.02 | 0.00 | 74 | 1008.3 |
| 20260509185744 | 84 | 300 | 3.0 | 9.0 | 0.00 | 0.02 | 0.00 | 73 | 1008.3 |
| 20260509185230 | 85 | 7 | 3.0 | 9.0 | 0.00 | 0.02 | 0.00 | 73 | 1008.4 |
| 20260509184722 | 85 | 299 | 3.0 | 9.0 | 0.00 | 0.02 | 0.00 | 74 | 1008.3 |
| 20260509184225 | 84 | 347 | 2.0 | 6.0 | 0.00 | 0.02 | 0.00 | 74 | 1008.4 |
| 20260509183732 | 83 | 343 | 0.0 | 6.0 | 0.00 | 0.02 | 0.00 | 74 | 1008.6 |
| 20260509183226 | 83 | 2 | 1.0 | 0.0 | 0.00 | 0.02 | 0.00 | 76 | 1008.6 |
| 20260509182716 | 82 | 47 | 2.0 | 4.0 | 0.00 | 0.02 | 0.00 | 78 | 1008.5 |
| 20260509182223 | 82 | 340 | 1.0 | 4.0 | 0.00 | 0.02 | 0.00 | 81 | 1008.5 |
| 20260509181707 | 82 | 357 | 1.0 | 4.0 | 0.00 | 0.02 | 0.00 | 83 | 1008.6 |
| 20260509181151 | 82 | 310 | 1.0 | 4.0 | 0.00 | 0.02 | 0.00 | 84 | 1008.7 |
| 20260509180648 | 82 | 37 | 2.0 | 3.0 | 0.00 | 0.02 | 0.00 | 84 | 1008.8 |
| 20260509180142 | 82 | 47 | 2.0 | 6.0 | 0.00 | 0.02 | 0.00 | 85 | 1008.8 |
| 20260509175623 | 82 | 98 | 3.0 | 6.0 | 0.00 | 0.02 | 0.00 | 85 | 1008.9 |
| 20260509175103 | 82 | 88 | 4.0 | 6.0 | 0.00 | 0.02 | 0.00 | 86 | 1009.1 |
| 20260509174600 | 82 | 102 | 2.0 | 6.0 | 0.00 | 0.02 | 0.00 | 87 | 1009.1 |
| 20260509174050 | 82 | 99 | 0.0 | 3.0 | 0.00 | 0.02 | 0.00 | 87 | 1009.3 |
| 20260509173547 | 82 | 173 | 1.0 | 3.0 | 0.00 | 0.02 | 0.00 | 87 | 1009.4 |
| 20260509173036 | 81 | 115 | 1.0 | 3.0 | 0.00 | 0.02 | 0.00 | 88 | 1009.6 |
| 20260509172541 | 81 | 107 | 1.0 | 3.0 | 0.00 | 0.02 | 0.00 | 88 | 1009.5 |
| 20260509172028 | 81 | 182 | 1.0 | 3.0 | 0.00 | 0.02 | 0.00 | 88 | 1009.6 |
| 20260509171523 | 81 | 176 | 1.0 | 3.0 | 0.00 | 0.02 | 0.00 | 88 | 1009.6 |
| 20260509171007 | 81 | 192 | 0.0 | 3.0 | 0.00 | 0.02 | 0.00 | 88 | 1009.4 |
| 20260509170500 | 80 | 175 | 0.0 | 1.0 | 0.00 | 0.02 | 0.00 | 88 | 1009.4 |
| 20260509165957 | 80 | 260 | 0.0 | 0.0 | 0.00 | 0.02 | 0.00 | 88 | 1009.5 |
| 20260509165448 | 80 | 184 | 0.0 | 2.0 | 0.00 | 0.02 | 0.00 | 89 | 1009.5 |
| 20260509164927 | 80 | 165 | 0.0 | 0.0 | 0.00 | 0.02 | 0.00 | 89 | 1009.4 |
| 20260509164425 | 80 | 267 | 0.0 | 4.0 | 0.00 | 0.02 | 0.00 | 89 | 1009.8 |
| 20260509163909 | 80 | 195 | 0.0 | 2.0 | 0.00 | 0.02 | 0.00 | 89 | 1009.9 |
| 20260509163347 | 80 | 237 | 0.0 | 2.0 | 0.00 | 0.02 | 0.00 | 89 | 1009.9 |
| 20260509162854 | 80 | 184 | 0.0 | 0.0 | 0.00 | 0.02 | 0.00 | 89 | 1009.5 |
| 20260509162345 | 80 | 184 | 1.0 | 1.0 | 0.00 | 0.02 | 0.00 | 89 | 1009.6 |
| 20260509161845 | 80 | 182 | 1.0 | 4.0 | 0.00 | 0.02 | 0.00 | 89 | 1009.7 |
| 20260509161337 | 80 | 208 | 1.0 | 3.0 | 0.00 | 0.02 | 0.00 | 89 | 1009.8 |
| 20260509160843 | 80 | 210 | 1.0 | 3.0 | 0.00 | 0.02 | 0.00 | 89 | 1009.8 |
| 20260509160321 | 80 | 195 | 0.0 | 3.0 | 0.00 | 0.02 | 0.00 | 89 | 1009.7 |
| 20260509155803 | 80 | 175 | 0.0 | 0.0 | 0.00 | 0.02 | 0.00 | 89 | 1009.6 |
| 20260509155247 | 79 | 175 | 1.0 | 4.0 | 0.00 | 0.02 | 0.00 | 89 | 1009.6 |
| 20260509154739 | 79 | 175 | 1.0 | 4.0 | 0.00 | 0.02 | 0.00 | 89 | 1009.8 |
| 20260509154217 | 79 | 211 | 0.0 | 4.0 | 0.00 | 0.02 | 0.00 | 89 | 1009.8 |
| 20260509153656 | 79 | 108 | 0.0 | 0.0 | 0.00 | 0.02 | 0.00 | 89 | 1009.5 |
| 20260509153150 | 79 | 108 | 0.0 | 1.0 | 0.00 | 0.02 | 0.00 | 89 | 1009.6 |
| 20260509152653 | 79 | 193 | 0.0 | 0.0 | 0.00 | 0.02 | 0.00 | 89 | 1009.6 |
| 20260509151534 | 79 | 119 | 0.0 | 2.0 | 0.00 | 0.02 | 0.00 | 89 | 1009.4 |
| 20260509150411 | 79 | 240 | 0.0 | 2.0 | 0.00 | 0.02 | 0.00 | 89 | 1009.8 |
| 20260509145854 | 79 | 169 | 0.0 | 1.0 | 0.00 | 0.02 | 0.00 | 89 | 1009.5 |
| 20260509145402 | 79 | 219 | 0.0 | 0.0 | 0.00 | 0.02 | 0.00 | 89 | 1009.6 |
| 20260509144843 | 79 | 219 | 0.0 | 0.0 | 0.00 | 0.02 | 0.00 | 89 | 1009.9 |
| 20260509143729 | 78 | 223 | 0.0 | 2.0 | 0.00 | 0.02 | 0.00 | 89 | 1009.9 |
| 20260509143226 | 78 | 210 | 1.0 | 3.0 | 0.00 | 0.02 | 0.00 | 89 | 1010.0 |
| 20260509142715 | 78 | 175 | 2.0 | 3.0 | 0.00 | 0.02 | 0.00 | 89 | 1009.8 |
| 20260509142217 | 78 | 185 | 1.0 | 3.0 | 0.00 | 0.02 | 0.00 | 89 | 1009.9 |
| 20260509141657 | 79 | 191 | 0.0 | 3.0 | 0.00 | 0.02 | 0.00 | 89 | 1009.5 |
| 20260509141204 | 79 | 144 | 0.0 | 0.0 | 0.00 | 0.02 | 0.00 | 89 | 1009.5 |
| 20260509140646 | 79 | 144 | 0.0 | 0.0 | 0.00 | 0.02 | 0.00 | 89 | 1009.4 |
| 20260509140140 | 79 | 171 | 1.0 | 4.0 | 0.00 | 0.02 | 0.00 | 89 | 1009.3 |
| 20260509135636 | 79 | 177 | 2.0 | 5.0 | 0.00 | 0.02 | 0.00 | 89 | 1009.4 |
| 20260509135129 | 79 | 130 | 2.0 | 5.0 | 0.00 | 0.02 | 0.00 | 89 | 1009.5 |
| 20260509134636 | 79 | 187 | 3.0 | 5.0 | 0.00 | 0.02 | 0.00 | 89 | 1009.6 |
| 20260509134123 | 79 | 185 | 2.0 | 5.0 | 0.00 | 0.02 | 0.00 | 89 | 1009.4 |
| 20260509132955 | 79 | 234 | 0.0 | 1.0 | 0.00 | 0.02 | 0.00 | 89 | 1009.6 |
| 20260509132436 | 79 | 15 | 0.0 | 0.0 | 0.00 | 0.02 | 0.00 | 89 | 1009.5 |
| 20260509131310 | 79 | 15 | 0.0 | 1.0 | 0.00 | 0.02 | 0.00 | 89 | 1009.6 |
| 20260509130816 | 79 | 15 | 0.0 | 1.0 | 0.00 | 0.02 | 0.00 | 89 | 1009.7 |
| 20260509125632 | 78 | 15 | 0.0 | 0.0 | 0.00 | 0.02 | 0.00 | 89 | 1009.0 |
| 20260509125137 | 78 | 15 | 0.0 | 0.0 | 0.00 | 0.02 | 0.00 | 89 | 1009.2 |
| 20260509124846 | 78 | 15 | 0.0 | 0.0 | 0.00 | 0.02 | 0.00 | 89 | 1009.1 |
| 20260509124339 | 78 | 15 | 0.0 | 0.0 | 0.00 | 0.02 | 0.00 | 89 | 1009.2 |
| 20260509123819 | 77 | 15 | 0.0 | 0.0 | 0.00 | 0.02 | 0.00 | 89 | 1009.5 |
| 20260509123304 | 77 | 15 | 0.0 | 0.0 | 0.00 | 0.02 | 0.00 | 89 | 1009.5 |
| 20260509122800 | 77 | 15 | 0.0 | 3.0 | 0.00 | 0.02 | 0.00 | 89 | 1009.5 |
| 20260509122248 | 77 | 15 | 1.0 | 5.0 | 0.00 | 0.02 | 0.00 | 89 | 1009.5 |
| 20260509121736 | 77 | 28 | 1.0 | 5.0 | 0.00 | 0.02 | 0.00 | 89 | 1009.6 |
| 20260509121227 | 77 | 2 | 2.0 | 5.0 | 0.00 | 0.02 | 0.00 | 89 | 1009.7 |
| 20260509120710 | 77 | 41 | 2.0 | 5.0 | 0.00 | 0.02 | 0.00 | 89 | 1009.8 |
| 20260509120209 | 77 | 20 | 0.0 | 3.0 | 0.00 | 0.02 | 0.00 | 89 | 1009.8 |
| 20260509115715 | 77 | 340 | 0.0 | 2.0 | 0.00 | 0.02 | 0.00 | 89 | 1009.7 |
| 20260509115156 | 77 | 341 | 0.0 | 2.0 | 0.00 | 0.02 | 0.00 | 89 | 1009.4 |
| 20260509114644 | 77 | 341 | 0.0 | 1.0 | 0.00 | 0.02 | 0.00 | 89 | 1009.1 |
| 20260509114126 | 77 | 340 | 0.0 | 0.0 | 0.00 | 0.02 | 0.00 | 89 | 1008.8 |
| 20260509113614 | 77 | 340 | 0.0 | 0.0 | 0.00 | 0.02 | 0.00 | 89 | 1009.2 |
| 20260509113053 | 77 | 340 | 0.0 | 0.0 | 0.00 | 0.02 | 0.00 | 88 | 1009.1 |
| 20260509112553 | 78 | 115 | 0.0 | 1.0 | 0.00 | 0.02 | 0.00 | 88 | 1008.7 |
| 20260509112033 | 78 | 115 | 0.0 | 0.0 | 0.00 | 0.02 | 0.00 | 88 | 1008.9 |
| 20260509111522 | 78 | 115 | 0.0 | 0.0 | 0.00 | 0.02 | 0.00 | 88 | 1009.0 |
| 20260509111010 | 78 | 115 | 0.0 | 0.0 | 0.00 | 0.02 | 0.00 | 88 | 1008.9 |
| 20260509110516 | 78 | 115 | 0.0 | 0.0 | 0.00 | 0.02 | 0.00 | 88 | 1008.8 |
| 20260509110006 | 78 | 115 | 0.0 | 1.0 | 0.00 | 0.02 | 0.00 | 88 | 1008.7 |
| 20260509105452 | 78 | 115 | 0.0 | 0.0 | 0.00 | 0.02 | 0.00 | 88 | 1008.7 |
| 20260509104940 | 78 | 115 | 0.0 | 0.0 | 0.00 | 0.02 | 0.00 | 88 | 1008.6 |
| 20260509104428 | 78 | 115 | 0.0 | 2.0 | 0.00 | 0.02 | 0.00 | 88 | 1008.6 |
| 20260509103905 | 78 | 115 | 0.0 | 2.0 | 0.00 | 0.02 | 0.00 | 88 | 1008.5 |
| 20260509102801 | 78 | 115 | 1.0 | 2.0 | 0.00 | 0.02 | 0.00 | 89 | 1008.6 |
| 20260509102250 | 78 | 114 | 0.0 | 2.0 | 0.00 | 0.02 | 0.00 | 88 | 1008.6 |
| 20260509101756 | 78 | 107 | 0.0 | 2.0 | 0.00 | 0.02 | 0.00 | 88 | 1008.5 |
| 20260509100642 | 78 | 107 | 1.0 | 3.0 | 0.00 | 0.02 | 0.00 | 88 | 1008.4 |
| 20260509100149 | 78 | 100 | 1.0 | 3.0 | 0.00 | 0.02 | 0.00 | 88 | 1008.2 |
| 20260509095655 | 78 | 100 | 0.0 | 3.0 | 0.00 | 0.02 | 0.00 | 88 | 1008.2 |
| 20260509095202 | 78 | 109 | 1.0 | 4.0 | 0.00 | 0.02 | 0.00 | 88 | 1008.2 |
| 20260509094708 | 78 | 158 | 2.0 | 4.0 | 0.00 | 0.02 | 0.00 | 88 | 1008.2 |
| 20260509094155 | 78 | 176 | 2.0 | 6.0 | 0.00 | 0.02 | 0.00 | 88 | 1008.2 |
| 20260509093638 | 78 | 169 | 3.0 | 6.0 | 0.00 | 0.02 | 0.00 | 88 | 1008.3 |
| 20260509093141 | 78 | 184 | 3.0 | 6.0 | 0.00 | 0.02 | 0.00 | 88 | 1008.2 |
| 20260509092634 | 78 | 143 | 4.0 | 6.0 | 0.00 | 0.02 | 0.00 | 88 | 1008.0 |
| 20260509092140 | 78 | 170 | 4.0 | 6.0 | 0.00 | 0.02 | 0.00 | 88 | 1007.9 |
| 20260509091004 | 78 | 136 | 3.0 | 6.0 | 0.00 | 0.02 | 0.00 | 88 | 1007.7 |
| 20260509090510 | 78 | 201 | 3.0 | 5.0 | 0.00 | 0.02 | 0.00 | 88 | 1007.9 |
| 20260509090007 | 78 | 171 | 3.0 | 5.0 | 0.00 | 0.02 | 0.00 | 88 | 1007.9 |
| 20260509085511 | 78 | 171 | 3.0 | 5.0 | 0.00 | 0.02 | 0.00 | 88 | 1007.8 |
| 20260509084325 | 78 | 166 | 2.0 | 4.0 | 0.00 | 0.02 | 0.00 | 88 | 1008.3 |
| 20260509083819 | 78 | 176 | 2.0 | 3.0 | 0.00 | 0.02 | 0.00 | 88 | 1008.4 |
| 20260509083310 | 78 | 167 | 1.0 | 3.0 | 0.00 | 0.02 | 0.00 | 88 | 1008.4 |
| 20260509082804 | 78 | 163 | 1.0 | 3.0 | 0.00 | 0.02 | 0.00 | 88 | 1008.4 |
| 20260509082244 | 78 | 159 | 0.0 | 3.0 | 0.00 | 0.02 | 0.00 | 88 | 1008.4 |
| 20260509081736 | 78 | 155 | 0.0 | 2.0 | 0.00 | 0.02 | 0.00 | 88 | 1008.6 |
| 20260509080010 | 78 | 179 | 0.0 | 4.0 | 0.00 | 0.02 | 0.00 | 88 | 1008.5 |
| 20260509075515 | 78 | 147 | 2.0 | 4.0 | 0.00 | 0.02 | 0.00 | 88 | 1008.5 |
| 20260509075021 | 78 | 180 | 2.0 | 5.0 | 0.00 | 0.02 | 0.00 | 88 | 1008.7 |
| 20260509074503 | 78 | 150 | 3.0 | 5.0 | 0.00 | 0.02 | 0.00 | 88 | 1008.4 |
| 20260509073942 | 78 | 167 | 3.0 | 6.0 | 0.00 | 0.02 | 0.00 | 88 | 1008.2 |
| 20260509073436 | 78 | 2 | 3.0 | 6.0 | 0.00 | 0.02 | 0.00 | 88 | 1008.3 |
| 20260509072923 | 78 | 159 | 3.0 | 8.0 | 0.00 | 0.02 | 0.00 | 88 | 1008.4 |
| 20260509072416 | 78 | 134 | 3.0 | 8.0 | 0.00 | 0.02 | 0.00 | 88 | 1008.5 |
| 20260509071245 | 78 | 159 | 4.0 | 8.0 | 0.00 | 0.02 | 0.00 | 88 | 1008.7 |
| 20260509070749 | 78 | 151 | 4.0 | 6.0 | 0.00 | 0.02 | 0.00 | 88 | 1008.5 |
| 20260509070250 | 78 | 2 | 3.0 | 6.0 | 0.00 | 0.02 | 0.00 | 88 | 1008.7 |
| 20260509065740 | 78 | 154 | 3.0 | 6.0 | 0.00 | 0.02 | 0.00 | 88 | 1008.7 |
| 20260509064611 | 78 | 142 | 4.0 | 8.0 | 0.00 | 0.02 | 0.00 | 88 | 1008.9 |
| 20260509064106 | 78 | 180 | 4.0 | 8.0 | 0.00 | 0.02 | 0.00 | 88 | 1008.7 |
| 20260509063603 | 78 | 2 | 5.0 | 8.0 | 0.00 | 0.02 | 0.00 | 88 | 1008.8 |
| 20260509063109 | 78 | 155 | 5.0 | 9.0 | 0.00 | 0.02 | 0.00 | 88 | 1008.8 |
| 20260509062610 | 78 | 156 | 5.0 | 9.0 | 0.00 | 0.02 | 0.00 | 88 | 1008.8 |
| 20260509062057 | 78 | 150 | 4.0 | 9.0 | 0.00 | 0.02 | 0.00 | 88 | 1008.7 |
| 20260509060907 | 78 | 157 | 5.0 | 9.0 | 0.00 | 0.02 | 0.00 | 88 | 1008.7 |
| 20260509060401 | 78 | 2 | 5.0 | 9.0 | 0.00 | 0.02 | 0.00 | 88 | 1008.7 |
| 20260509055216 | 78 | 146 | 4.0 | 9.0 | 0.00 | 0.02 | 0.00 | 88 | 1009.1 |
| 20260509054714 | 78 | 152 | 4.0 | 9.0 | 0.00 | 0.02 | 0.00 | 88 | 1008.9 |
| 20260509054153 | 78 | 169 | 5.0 | 9.0 | 0.00 | 0.02 | 0.00 | 88 | 1008.9 |
| 20260509053633 | 78 | 2 | 5.0 | 9.0 | 0.00 | 0.02 | 0.00 | 88 | 1008.9 |
| 20260509053134 | 78 | 2 | 4.0 | 10.0 | 0.00 | 0.02 | 0.00 | 88 | 1008.9 |
| 20260509052613 | 78 | 160 | 4.0 | 10.0 | 0.00 | 0.02 | 0.00 | 88 | 1008.9 |
| 20260509052102 | 78 | 141 | 5.0 | 10.0 | 0.00 | 0.02 | 0.00 | 88 | 1009.0 |
| 20260509051551 | 78 | 2 | 6.0 | 10.0 | 0.00 | 0.02 | 0.00 | 88 | 1009.0 |
| 20260509051035 | 78 | 145 | 5.0 | 9.0 | 0.00 | 0.02 | 0.00 | 88 | 1009.1 |
| 20260509050518 | 78 | 129 | 5.0 | 10.0 | 0.00 | 0.02 | 0.00 | 88 | 1009.2 |
| 20260509050006 | 78 | 127 | 6.0 | 12.0 | 0.00 | 0.02 | 0.02 | 88 | 1009.5 |
| 20260509045451 | 78 | 115 | 6.0 | 12.0 | 0.00 | 0.02 | 0.02 | 88 | 1009.5 |
| 20260509044957 | 78 | 2 | 6.0 | 12.0 | 0.00 | 0.02 | 0.02 | 88 | 1009.4 |
| 20260509043826 | 78 | 188 | 5.0 | 10.0 | 0.00 | 0.02 | 0.02 | 88 | 1009.6 |
| 20260509043323 | 78 | 167 | 5.0 | 10.0 | 0.00 | 0.02 | 0.02 | 88 | 1009.7 |
| 20260509042143 | 78 | 130 | 7.0 | 12.0 | 0.00 | 0.02 | 0.02 | 88 | 1009.6 |
| 20260509041631 | 78 | 150 | 8.0 | 12.0 | 0.00 | 0.02 | 0.02 | 88 | 1009.6 |
| 20260509035821 | 78 | 166 | 7.0 | 11.0 | 0.00 | 0.02 | 0.02 | 88 | 1009.2 |
| 20260509035320 | 78 | 157 | 6.0 | 10.0 | 0.00 | 0.02 | 0.02 | 88 | 1009.1 |
| 20260509034804 | 78 | 132 | 6.0 | 10.0 | 0.00 | 0.02 | 0.02 | 88 | 1009.1 |
| 20260509034300 | 78 | 151 | 6.0 | 10.0 | 0.00 | 0.02 | 0.02 | 88 | 1009.2 |
| 20260509033742 | 78 | 162 | 6.0 | 10.0 | 0.00 | 0.02 | 0.02 | 88 | 1009.2 |
| 20260509033242 | 78 | 150 | 6.0 | 10.0 | 0.00 | 0.02 | 0.02 | 88 | 1009.1 |
| 20260509032738 | 78 | 157 | 6.0 | 12.0 | 0.00 | 0.02 | 0.02 | 88 | 1009.0 |
| 20260509032225 | 78 | 167 | 6.0 | 12.0 | 0.00 | 0.02 | 0.02 | 88 | 1008.9 |
| 20260509031711 | 78 | 157 | 6.0 | 12.0 | 0.00 | 0.02 | 0.02 | 88 | 1008.9 |
| 20260509031217 | 78 | 171 | 7.0 | 12.0 | 0.00 | 0.02 | 0.02 | 88 | 1008.7 |
| 20260509030708 | 78 | 175 | 8.0 | 12.0 | 0.00 | 0.02 | 0.02 | 88 | 1008.2 |
| 20260509030209 | 78 | 174 | 8.0 | 12.0 | 0.00 | 0.02 | 0.02 | 88 | 1008.2 |
| 20260509025655 | 78 | 188 | 6.0 | 10.0 | 0.00 | 0.02 | 0.02 | 88 | 1008.4 |
| 20260509025152 | 78 | 139 | 6.0 | 10.0 | 0.00 | 0.02 | 0.02 | 88 | 1008.8 |
| 20260509024655 | 78 | 159 | 6.0 | 12.0 | 0.00 | 0.02 | 0.02 | 88 | 1008.5 |
| 20260509024142 | 78 | 135 | 7.0 | 12.0 | 0.00 | 0.02 | 0.02 | 88 | 1008.7 |